Location: Drawsko Pomorskie
(53.5317°N, 15.8111°E)
Time: 22:03:59
(UTC+01:00)

Envisat - Pass Details

Date: 18 October 2019
Orbit: 764 x 766 km, 98.1° (Epoch: 16 November)

Event Time Altitude Azimuth Distance (km) Brightness Sun altitude
Rises 19:05:14 0° 173° (S) 3,223 6.2 -11.2°
Reaches altitude 10° 19:07:33 10° 177° (S) 2,301 5.5 -11.6°
Maximum altitude 19:12:35 62° 258° (WSW) 861 3.6 -12.3°
Drops below altitude 10° 19:17:39 10° 340° (NNW) 2,317 5.8 -13.1°
Sets 19:20:00 0° 344° (NNW) 3,248 6.5 -13.4°
